Cactus Peak, Santa Catalina Island Weather observations

Data are for 10 minute period ending at time listed.
 Day   Time   Solar   Ave.   Ave.  Ave.  Vector    Max.   Stn.    Total
  of    of     Rad.   Air    Rel.  Wind   Wind     Wind   Baro.  Precip.
Year   Day            Temp.  Hum.  Speed  Dir.     Gust   Pres.         
2026   (PST)   W/m2    F      %     mph   deg.      mph    mb.     in.  
------------------------------------------------------------------------
 242   13:10  869.0    77   58.8     5    343.5    10.2    999.0   0.00  
 242   13:20  853.0    78   58.0     3    334.2     7.8    999.0   0.00  
 242   13:30  835.0    79   57.0     4    325.7     7.2    999.0   0.00  
 242   13:40  817.0    80   54.7     5    341.8     7.8    999.0   0.00  
 242   13:50  804.0    79   55.6     8    339.2    10.8    999.0   0.00  
 242   14:00  783.0    78   55.9     4    355.5     9.0    999.0   0.00  
 242   14:10  758.0    79   55.8     4      3.3     7.8    999.0   0.00  
 242   14:20  733.0    79   55.1     4      4.0     7.2    999.0   0.00  
 242   14:30  709.0    80   52.6     4     10.4     7.2    999.0   0.00  
 242   14:40  682.0    81   50.5     3     24.5     6.0    999.0   0.00  
 242   14:50  659.0    80   51.0     5      9.3     9.0    999.0   0.00  
 242   15:00  635.0    78   55.2     8     10.7    10.2    999.0   0.00  
 242   15:10  612.0    76   58.5     9      4.0    12.5    999.0   0.00  
 242   15:20  586.0    75   58.5     8    357.3    11.3    999.0   0.00  
 242   15:30  552.0    75   56.0     7      5.6     9.6    999.0   0.00  
 242   15:40  518.0    76   52.6     6    351.7     8.4    999.0   0.00  
 242   15:50  486.0    76   51.5     6    350.6     9.0    999.0   0.00  
 242   16:00  456.0    75   57.9    10    351.5    13.1    999.0   0.00  
 242   16:10  425.0    72   70.6    12    353.8    16.1    999.0   0.00  
 242   16:20  385.0    70   76.1    13      4.3    16.1    999.0   0.00  
 242   16:30  348.0    69   80.3    12    351.7    16.1    999.0   0.00  
 242   16:40  313.0    69   82.1    11      0.9    14.3    999.0   0.00  
 242   16:50  281.0    68   82.6    12      1.8    14.9    999.0   0.00  
 242   17:00  249.0    68   81.4    12    354.0    14.3    999.0   0.00  
 242   17:10  217.0    68   81.6    12      2.5    14.3    999.0   0.00  
 242   17:20  182.0    67   82.5    11      1.5    14.3    999.0   0.00  
 242   17:30  148.0    66   84.0    11      2.1    13.7    999.0   0.00  
 242   17:40  116.0    66   85.2    10    355.8    12.5    999.0   0.00  
 242   17:50   43.0    65   86.8     9    346.2    11.3    999.0   0.00  
 242   18:00   41.0    64   98.5    10    358.1    13.7    999.0   0.00  
 242   18:10   29.0    64   20.9    10    356.5    13.1    999.0   0.00  
 242   18:20    8.0    64    0.5    10    353.3    13.1    999.0   0.00  
 242   18:30    6.0    63    0.4    10    353.5    12.5    999.0   0.00  
 242   18:40    0.0    63   48.8     9    353.5    11.3    999.0   0.00  
 242   18:50    0.0    63   96.8    10      4.0    11.3    999.0   0.00  
 242   19:00    0.0    62   99.9    10      2.0    11.9    999.0   0.00  
 242   19:10    0.0    62   99.9    10      3.0    11.9    999.0   0.00  
 242   19:20    0.0    62   99.9     9      8.7    11.3    999.0   0.00  
 242   19:30    0.0    62   99.9    12     12.4    14.3    999.0   0.00  
 242   19:40    0.0    62   99.9    12     14.3    13.7    999.0   0.00  
 242   19:50    0.0    62   99.9    11     14.9    13.7    999.0   0.00  
 242   20:00    0.0    62   99.9    11     12.1    12.5    999.0   0.00  
 242   20:10    0.0    62   99.9    10     10.8    11.9    999.0   0.00  
 242   20:20    0.0    62   99.9     8      9.0    11.3    999.0   0.00  
 242   20:30    0.0    62   99.9     3      9.2    11.9    999.0   0.00  
 242   20:40    0.0    62   99.9     9     11.1    11.9    999.0   0.00  
 242   20:50    0.0    62   99.9     9      2.3    10.8    999.0   0.00  
 242   21:00    0.0    62   99.9     7    359.9     9.0    999.0   0.00  
 242   21:10    0.0    62   99.9     7    341.0     8.4    999.0   0.00  
 242   21:20    0.0    62   99.9     7    326.2     9.0    999.0   0.00  
 242   21:30    0.0    62   99.9     6    336.7     9.0    999.0   0.00  
 242   21:40    0.0    62   99.9     6    340.1     7.2    999.0   0.00  
 242   21:50    0.0    62   99.9     6    321.1     8.4    999.0   0.00  
 242   22:00    0.0    61   99.9     6    326.9     7.8    999.0   0.00  
 242   22:10    0.0    62   99.9     6    323.0     7.2    999.0   0.00  
 242   22:20    0.0    62   51.7     5    327.3     6.0    999.0   0.00  
 242   22:30    0.0    62   51.2     5    330.5     6.0    999.0   0.00  
 242   22:40    0.0    64   63.0     4    303.7     4.8    999.0   0.00  
 242   22:50    0.0    68   50.3     2    271.2     4.2    999.0   0.00  
 242   23:00    0.0    68   55.5     3    345.6     4.2    999.0   0.00  
 242   23:10    0.0    66   55.1     1    313.6     2.4    999.0   0.00  
 242   23:20    0.0    67   53.8     1    327.3     2.4    999.0   0.00  
 242   23:30    0.0    65   73.6     2     13.8     3.0    999.0   0.00  
 242   23:40    0.0    65   61.7     1     57.5     5.4    999.0   0.00  
 242   23:50    0.0    67   60.1     1     99.5     0.6    999.0   0.00  
 243    0:00    0.0    67   65.3     1    161.7     0.6    999.0   0.00  
 243    0:10    0.0    66   73.6     1    113.9     0.6    999.0   0.00  
 243    0:20    0.0    65   79.6     1    343.9     0.6    999.0   0.00  
 243    0:30    0.0    64   83.9     1     39.0     0.6    999.0   0.00  
 243    0:40    0.0    64   79.9     1    135.4     0.6    999.0   0.00  
 243    0:50    0.0    65   80.9     1    119.6     0.6    999.0   0.00  
 243    1:00    0.0    64   60.6     1    154.8     4.8    999.0   0.00  
 243    1:10    0.0    64    0.5     1    159.9     0.6    999.0   0.00  
 243    1:20    0.0    64    0.4     1    144.2     0.6    999.0   0.00  
 243    1:30    0.0    63   46.3     1     14.9     0.6    999.0   0.00  
 243    1:40    0.0    62   70.9     1     23.4     0.6    999.0   0.00  
 243    1:50    0.0    62    0.4     1     18.8     0.6    999.0   0.00  
 243    2:00    0.0    62    0.4     1    357.3     0.6    999.0   0.00  
 243    2:10    0.0    62   75.7     1    344.5     0.6    999.0   0.00  
 243    2:20    0.0    62   99.9     1    351.9     0.6    999.0   0.00  
 243    2:30    0.0    62   99.9     1    354.7     0.6    999.0   0.00  
 243    2:40    0.0    62   99.9     1     11.6     0.6    999.0   0.00  
 243    2:50    0.0    61   99.9     1    354.5     0.6    999.0   0.00  
 243    3:00    0.0    61   99.9     1     31.6     0.6    999.0   0.00  
 243    3:10    0.0    62   99.9     1     66.5     0.6    999.0   0.00  
 243    3:20    0.0    63   99.9     1     72.2     0.6    999.0   0.00  
 243    3:30    0.0    63   99.9     1     63.8     0.6    999.0   0.00  
 243    3:40    0.0    63   99.9     1     61.7     0.6    999.0   0.00  
 243    3:50    0.0    63   99.9     1     52.6     0.6    999.0   0.00  
 243    4:00    0.0    62   99.9     1     41.4     0.6    999.0   0.00  
 243    4:10    0.0    62   99.9     1     39.3     0.6    999.0   0.00  
 243    4:20    0.0    63   99.9     1     61.0     0.6    999.0   0.00  
 243    4:30    0.0    62   99.9     1     43.3     0.6    999.0   0.00  
 243    4:40    0.0    62   99.9     1     40.7     0.6    999.0   0.00  
 243    4:50    0.0    62   99.9     1     48.3     0.6    999.0   0.00  
 243    5:00    0.0    62   99.9     1     49.8     0.6    999.0   0.00  
 243    5:10    0.0    62   99.9     1     62.8     0.6    999.0   0.00  
 243    5:20    0.0    62   99.9     1     57.9     0.6    999.0   0.00  
 243    5:30    2.0    62   99.9     1     52.5     0.6    999.0   0.00  
 243    5:40    9.0    62   99.9     1     15.2     0.6    999.0   0.00  
 243    5:50   17.0    62   99.9     1     42.3     0.6    999.0   0.00  
 243    6:00   31.0    62   99.9     1     30.9     0.6    999.0   0.00  
 243    6:10   41.0    62   99.9     1     34.9     0.6    999.0   0.00  
 243    6:20   56.0    63   99.9     1     26.1     0.6    999.0   0.00  
 243    6:30   98.0    63   99.9     1     20.3     0.6    999.0   0.00  
 243    6:40  164.0    64   99.9     1     99.2     0.6    999.0   0.00  
 243    6:50  202.0    64   99.9     1    163.5     0.6    999.0   0.00  
 243    7:00  229.0    64   99.9     1    157.5     0.6    999.0   0.00  
 243    7:10  262.0    65   99.9     1    170.5     0.6    999.0   0.00  
 243    7:20  199.0    66   53.1     1     11.2     0.6    999.0   0.00  
 243    7:30  238.0    65   58.1     1     31.3     0.6    999.0   0.00  
 243    7:40  232.0    65   85.4     1    161.6     0.6    999.0   0.00  
 243    7:50  237.0    65    6.7     1    171.4     1.2    999.0   0.00  
 243    8:00  380.0    65    0.5     2    167.8     8.4    999.0   0.00  
 243    8:10  421.0    66   31.0     1    178.6     0.6    999.0   0.00  
 243    8:20  384.0    67   86.5     1    195.6     0.6    999.0   0.00  
 243    8:30  560.0    68   82.7     1    182.7     0.6    999.0   0.00  
 243    8:40  560.0    68   79.7     1    189.8     8.4    999.0   0.00  
 243    8:50  615.0    69   77.4     2    168.0     9.0    999.0   0.00  
 243    9:00  642.0    69   76.0     1    216.3     7.2    999.0   0.00  
 243    9:10  661.0    72   69.3     2     33.8     7.8    999.0   0.00  
 243    9:20  686.0    72   67.8     1    322.8     0.6    999.0   0.00  
 243    9:30  712.0    73   65.2     2    172.6     7.8    999.0   0.00  
 243    9:40  740.0    72   67.0     5    187.8     9.0    999.0   0.00  
 243    9:50  766.0    71   69.1     5    182.8     9.6    999.0   0.00  
 243   10:00  791.0    70   70.5     7    182.4    11.9    999.0   0.00  
 243   10:10  811.0    72   67.7     4    218.6     9.6    999.0   0.00  
 243   10:20  823.0    73   64.0     1    123.5     5.4    999.0   0.00  
 243   10:30  840.0    73   64.1     1     49.2     3.6    999.0   0.00  
 243   10:40  855.0    73   63.8     1    184.3     0.6    999.0   0.00  
 243   10:50  869.0    74   62.5     1    244.1     9.6    999.0   0.00  
 243   11:00  879.0    74   61.9     2      0.9     7.8    999.0   0.00  
 243   11:10  892.0    74   61.8     4    358.9     8.4    999.0   0.00  
 243   11:20  901.0    74   60.5     2    220.8     7.2    999.0   0.00  
 243   11:30  860.0    74   61.7     6    202.7     9.6    999.0   0.00  
 243   11:40  915.0    74   60.8     4    196.1    10.8    999.0   0.00  
 243   11:50  913.0    76   56.9     4    233.3    10.2    999.0   0.00  
 243   12:00  918.0    74   61.2     8    215.3    11.3    999.0   0.00  
 243   12:10  919.0    73   62.4     7    214.8    12.5    999.0   0.00  
 243   12:20  917.0    73   61.8     7    218.7    12.5    999.0   0.00  
 243   12:30  911.0    75   58.4     3    224.4     9.6    999.0   0.00  
 243   12:40  902.0    75   58.0     6    225.1    10.2    999.0   0.00  
 243   12:50  891.0    75   57.5     3    351.0     7.8    999.0   0.00  
 243   13:00  876.0    74   60.1     1      3.5     6.0    999.0   0.00  

Return to Cactus Peak graphs page.


Western Regional Climate Center,wrcc@dri.edu